This is the latest recevied weather packets stored in our database for station/object KTXK. If no packets are shown the sender has not sent any weather packets the latest 10 day(s).
| Time | Temp. | Humidity | Pressure | Rain* | Wind** | Luminosity | Snow |
|---|---|---|---|---|---|---|---|
| 1778086426 | 13.89° C | 93% | 1014.2 hPa | - | - | - | - |
| 1778085822 | 13.89° C | 93% | 1014.2 hPa | - | - | - | - |
| 1778085224 | 13.89° C | 93% | 1014.2 hPa | - | - | - | - |
| 1778084623 | 13.89° C | 93% | 1014.2 hPa | - | - | - | - |
| 1778084023 | 13.89° C | 93% | 1014.2 hPa | - | - | - | - |
| 1778083546 | 13.89° C | 93% | 1014.2 hPa | - | - | - | - |
| 1778082828 | 13.89° C | 93% | 1013.2 hPa | - | - | - | - |
| 1778082221 | 13.89° C | 93% | 1013.2 hPa | - | - | - | - |
| 1778081622 | 13.89° C | 93% | 1013.2 hPa | - | - | - | - |
| 1778081023 | 13.89° C | 93% | 1013.2 hPa | - | - | - | - |
| 1778080422 | 13.89° C | 93% | 1013.2 hPa | - | - | - | - |
| 1778079824 | 13.89° C | 100% | 1013.5 hPa | - | - | - | - |
| 1778079221 | 15.56° C | 87% | 1012.9 hPa | - | - | - | - |
| 1778078623 | 15.56° C | 87% | 1012.9 hPa | - | - | - | - |
| 1778078022 | 15.56° C | 87% | 1012.9 hPa | - | - | - | - |
| 1778077418 | 15.56° C | 93% | 1012.5 hPa | - | - | - | - |
| 1778076820 | 15.56° C | 93% | 1012.5 hPa | - | - | - | - |
| 1778076220 | 16.67° C | 88% | 1012.5 hPa | - | - | - | - |
| 1778075620 | 16.67° C | 93% | 1012.5 hPa | - | - | - | - |
| 1778075019 | 17.78° C | 88% | 1011.9 hPa | - | - | - | - |
| 1778074417 | 17.78° C | 88% | 1011.9 hPa | - | - | - | - |
| 1778073819 | 17.78° C | 88% | 1011.9 hPa | - | - | - | - |
| 1778073222 | 17.78° C | 88% | 1011.9 hPa | - | - | - | - |
| 1778072623 | 17.78° C | 88% | 1011.9 hPa | - | - | - | - |
| 1778072019 | 17.78° C | 88% | 1010.2 hPa | - | - | - | - |
* Rain since midnight (hover to see other rain measurements)
** Current wind speed in m/s (hover to see current wind gust speed)